Weather History for PHOG - September, 2013

Change the Weather History Date:

Saturday, September 7, 2013

  Actual Average Record
Temperature  
Mean Temperature 82 °F 79 °F  
Max Temperature 90 °F 88 °F 94 °F (2004)
Min Temperature 73 °F 71 °F 61 °F (1969)
Degree Days  
Heating Degree Days 0 0  
Month to date heating degree days 0 0  
Since 1 July heating degree days 0 0  
Cooling Degree Days 17 14  
Month to date cooling degree days 101 100  
Year to date cooling degree days 2888 2642  
Growing Degree Days 32 (Base 50)    
Moisture  
Dew Point 73 °F    
Average Humidity 78    
Maximum Humidity 100    
Minimum Humidity 56    
Precipitation  
Precipitation 0.09 in 0.01 in 0.14 in (1979)
Month to date precipitation 0.09 0.08  
Year to date precipitation 8.75 10.78  
Snow  
Snow 0.00 in - - ()
Month to date snowfall 0.0  
Since 1 July snowfall 0.0  
Since 1 September snowfall 0.0  
Snow Depth 0.00 in    
Sea Level Pressure  
Sea Level Pressure 30.02 in    
Wind  
Wind Speed 14 mph (NE)    
Max Wind Speed 26 mph    
Max Gust Speed 33 mph    
Visibility 10 miles    
Events Rain    
T = Trace of Precipitation, MM = Missing Value Source: NWS Daily Summary

Daily Weather History Graph

Daily Weather History Graph

Search for Another Location

Airport or City:

Trip Planner

Search our weather history database for the weather conditions in past years. The results will help you decide how hot, cold, wet, or windy it might be!

Date:

Astronomy

Sep. 07, 2013 Rise Set
Actual Time 6:11 AM HST 6:35 PM HST
Civil Twilight 5:48 AM HST 6:57 PM HST
Nautical Twilight 5:22 AM HST 7:24 PM HST
Astronomical Twilight 4:56 AM HST 7:50 PM HST
Moon 8:11 AM HST (9/7) 8:09 PM HST (9/7)
Length of Visible Light 13h 09m
Length of Day
12h 24m
Waxing Crescent, 6% of the Moon is Illuminated
Sep 7
Waxing Crescent
Sep 12
First Quarter
Sep 19
Full
Sep 26
Last Quarter
Oct 4
New

Hourly Weather History & Observations

Time (HST) Temp. Heat Index Dew Point Humidity Pressure Visibility Wind Dir Wind Speed Gust Speed Precip Events Conditions
12:54 AM 75.9 °F - 73.0 °F 91% 30.06 in 10.0 mi NE 10.4 mph - N/A   Partly Cloudy
1:54 AM 73.9 °F - 73.9 °F 100% 30.05 in 10.0 mi NE 9.2 mph - 0.03 in Rain Light Rain
2:54 AM 75.0 °F - 73.9 °F 96% 30.03 in 5.0 mi ENE 6.9 mph - 0.02 in Rain Rain
3:54 AM 75.0 °F - 73.0 °F 94% 30.03 in 10.0 mi ENE 16.1 mph - 0.04 in   Overcast
4:54 AM 75.0 °F - 73.9 °F 96% 30.03 in 9.0 mi NE 10.4 mph - 0.00 in Rain Light Rain
5:54 AM 75.9 °F - 73.9 °F 94% 30.03 in 10.0 mi NE 12.7 mph - 0.00 in   Scattered Clouds
6:54 AM 73.9 °F - 72.0 °F 93% 30.04 in 10.0 mi Calm Calm - N/A   Scattered Clouds
7:54 AM 75.9 °F - 72.0 °F 87% 30.05 in 10.0 mi Calm Calm - N/A   Scattered Clouds
8:54 AM 82.0 °F 87.9 °F 73.9 °F 76% 30.05 in 10.0 mi NE 15.0 mph 25.3 mph N/A   Scattered Clouds
9:54 AM 84.9 °F 91.4 °F 73.0 °F 67% 30.04 in 10.0 mi ENE 20.7 mph 27.6 mph N/A   Scattered Clouds
10:54 AM 87.1 °F 94.5 °F 73.0 °F 63% 30.03 in 10.0 mi ENE 19.6 mph 29.9 mph N/A   Scattered Clouds
11:54 AM 89.1 °F 97.0 °F 73.0 °F 59% 30.02 in 10.0 mi NE 20.7 mph 27.6 mph N/A   Scattered Clouds
12:54 PM 90.0 °F 99.0 °F 73.9 °F 59% 30.00 in 10.0 mi ENE 18.4 mph 29.9 mph N/A   Scattered Clouds
1:54 PM 89.1 °F 96.0 °F 72.0 °F 57% 29.98 in 10.0 mi NE 23.0 mph 31.1 mph N/A   Scattered Clouds
2:54 PM 89.1 °F 97.0 °F 73.0 °F 59% 29.96 in 10.0 mi NE 24.2 mph 31.1 mph N/A   Scattered Clouds
3:54 PM 87.1 °F 93.6 °F 72.0 °F 61% 29.96 in 10.0 mi ENE 18.4 mph 31.1 mph N/A   Scattered Clouds
4:54 PM 84.9 °F 90.7 °F 72.0 °F 65% 29.96 in 10.0 mi NE 20.7 mph 26.5 mph N/A   Partly Cloudy
5:54 PM 82.9 °F 88.0 °F 72.0 °F 69% 29.98 in 10.0 mi ENE 18.4 mph 28.8 mph N/A   Clear
6:54 PM 80.1 °F 83.8 °F 72.0 °F 76% 29.99 in 10.0 mi ENE 16.1 mph 21.9 mph N/A   Mostly Cloudy
7:54 PM 78.1 °F - 72.0 °F 81% 30.02 in 10.0 mi NE 13.8 mph - N/A   Unknown
8:54 PM 78.1 °F - 72.0 °F 81% 30.04 in 10.0 mi ENE 10.4 mph - N/A   Partly Cloudy
9:54 PM 78.1 °F - 73.0 °F 84% 30.05 in 10.0 mi NE 13.8 mph - N/A   Mostly Cloudy
10:54 PM 77.0 °F - 72.0 °F 84% 30.05 in 10.0 mi ENE 10.4 mph - N/A   Overcast
11:54 PM 77.0 °F - 72.0 °F 84% 30.04 in 10.0 mi ENE 11.5 mph - N/A   Mostly Cloudy